Regional Weather Roundup
Issued by NWS Cleveland, OH

Home | Current Version | Previous Version | Graphics & Text | Print | Product List | Glossary On
Versions: 1 2 3 4 5 6 7 8 9 10 11 12 13 14 15 16 17 18 19 20 21 22 23 24 25 26 27 28 29 30 31 32 33 34 35 36 37 38 39 40 41 42 43 44 45 46 47 48 49 50
000
ASUS41 KCLE 301900
RWRCLE
OHIO REGIONAL WEATHER ROUNDUP
NATIONAL WEATHER SERVICE WILMINGTON, OH
300 PM EDT THU OCT 30 2014

NOTE: "FAIR" INDICATES FEW OR NO CLOUDS BELOW 12,000 FEET WITH NO
SIGNIFICANT WEATHER AND/OR OBSTRUCTIONS TO VISIBILITY.

OHZ001>008-015>018-024>027-034-035-043-044-302000-
   NORTHWEST OHIO

CITY           SKY/WX    TMP DP  RH WIND       PRES   REMARKS
DEFIANCE       CLOUDY    49  36  61 SW5       30.10F
FINDLAY        CLOUDY    50  33  52 NW6       30.09F
TOLEDO EXPRESS CLOUDY    49  33  54 W5        30.10F
TOLEDO METCALF PTSUNNY   50  33  52 W6        30.10F
LIMA           CLOUDY    49  33  54 W6        30.10F
$$

OHZ009>014-019>023-028>033-038-089-302000-
   NORTHEAST OHIO

CITY           SKY/WX    TMP DP  RH WIND       PRES   REMARKS
CLE-HOPKINS    PTSUNNY   49  37  63 W12       30.11F
CLE-LAKEFRONT  PTSUNNY  N/A N/A N/A NW15      30.11S
CUY CO. ARPT   PTSUNNY   48  37  66 NW12      30.09
LORAIN-ELYRIA  PTSUNNY   48  36  63 NW9       30.09F
ASHTABULA      CLOUDY    48  36  63 W10       30.08F
AKRON-CANTON   CLOUDY    49  35  58 NW3       30.07F
WOOSTER        NOT AVBL
MANSFIELD      CLOUDY    48  33  56 W6        30.08F
YOUNGSTOWN     CLOUDY    50  34  54 SW7       30.06F
$$

OHZ042-051>053-060>062-070>072-077>081-302000-
  SOUTHWEST OHIO

CITY           SKY/WX    TMP DP  RH WIND       PRES   REMARKS
CINC-COVINGTON MOSUNNY   52  31  44 CALM      30.09F
CINC-LUNKEN    SUNNY     53  34  48 SW5       30.10F
HAMILTON       SUNNY     53  33  46 NW3       30.11F
DAYTON         NOT AVBL
WRIGHT-PAT AFB NOT AVBL
DAYTON GENERAL SUNNY     51  34  52 VRB3      30.09F
WILMINGTON     MOSUNNY   53  32  44 VRB3      30.09F
$$

OHZ036-037-039>041-045>050-054>059-063>069-073>076-082>088-302000-
  CENTRAL AND SOUTHEAST OHIO

CITY           SKY/WX    TMP DP  RH WIND       PRES   REMARKS
COLUMBUS       CLOUDY    49  33  54 NW5       30.09F
OSU AIRPORT    CLOUDY    49  33  54 CALM      30.10F
BOLTON FIELD   CLOUDY    48  34  57 CALM      30.10F
RICKENBACK AFB NOT AVBL
NEWARK         CLOUDY    50  32  50 SW6       30.09F
MARION         CLOUDY    49  33  54 NW5       30.09F
LANCASTER      CLOUDY    50  33  52 CALM      30.10F
ZANESVILLE     CLOUDY    50  33  52 CALM      30.08F
NEW PHILLY     CLOUDY    50  37  61 NW3       30.09F
$$



USA.gov is the U.S. government's official web portal to all federal, state and local government web resources and services.